Time,TemperatureF,DewpointF,PressureIn,WindDirection,WindDirectionDegrees,WindSpeedMPH,WindSpeedGustMPH,Humidity,HourlyPrecipIn,Conditions,Clouds,dailyrainin,SoftwareType,DateUTC
2013-02-11 00:00:00,49.9,48.5,29.77,SSW,192,8.8,13.8,95,0.00,,OVC016,0.10,VWS V14.01,2013-02-11 05:00:00,
2013-02-11 00:05:00,50.0,48.3,29.77,South,176,1.2,15.0,94,0.00,,OVC016,0.00,VWS V14.01,2013-02-11 05:05:00,
2013-02-11 00:10:00,50.0,48.3,29.77,South,169,5.0,15.0,94,0.00,,OVC016,0.00,VWS V14.01,2013-02-11 05:10:00,
2013-02-11 00:15:00,50.1,48.4,29.77,SSW,207,3.8,15.0,94,0.00,,OVC016,0.00,VWS V14.01,2013-02-11 05:15:00,
2013-02-11 00:20:00,50.2,48.5,29.77,SSW,192,3.8,8.8,94,0.00,,OVC016,0.00,VWS V14.01,2013-02-11 05:20:00,
2013-02-11 00:25:00,50.1,48.4,29.77,South,189,2.5,8.8,94,0.00,,OVC016,0.00,VWS V14.01,2013-02-11 05:25:00,
2013-02-11 00:30:00,50.2,48.5,29.77,South,188,2.5,11.2,94,0.00,,OVC016,0.00,VWS V14.01,2013-02-11 05:30:00,
2013-02-11 00:35:00,50.2,48.5,29.77,SW,226,6.2,7.5,94,0.00,,OVC016,0.00,VWS V14.01,2013-02-11 05:35:00,
2013-02-11 00:40:00,50.2,48.5,29.77,SE,131,2.5,7.5,94,0.00,,OVC016,0.00,VWS V14.01,2013-02-11 05:40:00,
2013-02-11 00:45:00,50.3,48.6,29.77,South,177,5.0,13.8,94,0.00,,OVC016,0.00,VWS V14.01,2013-02-11 05:45:00,
2013-02-11 00:50:00,50.3,48.6,29.77,WSW,257,6.2,7.5,94,0.00,,OVC020,0.00,VWS V14.01,2013-02-11 05:50:00,
2013-02-11 00:55:00,50.4,48.7,29.77,SSE,148,1.2,10.0,94,0.00,,OVC020,0.00,VWS V14.01,2013-02-11 05:55:00,
2013-02-11 01:00:00,50.5,48.6,29.78,South,169,5.0,11.2,93,0.00,,OVC020,0.00,VWS V14.01,2013-02-11 06:00:00,
2013-02-11 01:05:00,50.6,48.7,29.77,SSW,194,6.2,12.5,93,0.00,,OVC020,0.00,VWS V14.01,2013-02-11 06:05:00,
2013-02-11 01:10:00,50.7,48.8,29.77,SSE,160,5.0,15.0,93,0.00,,OVC020,0.00,VWS V14.01,2013-02-11 06:10:00,
2013-02-11 01:15:00,50.9,48.7,29.77,South,179,6.2,15.0,92,0.00,,OVC020,0.00,VWS V14.01,2013-02-11 06:15:00,
2013-02-11 01:20:00,50.9,48.7,29.77,SW,225,7.5,10.0,92,0.00,,OVC020,0.00,VWS V14.01,2013-02-11 06:20:00,
2013-02-11 01:25:00,50.8,48.6,29.77,South,188,7.5,10.0,92,0.00,,OVC020,0.00,VWS V14.01,2013-02-11 06:25:00,
2013-02-11 01:30:00,50.8,48.6,29.78,SW,221,5.0,10.0,92,0.00,,OVC020,0.00,VWS V14.01,2013-02-11 06:30:00,
2013-02-11 01:35:00,50.8,48.6,29.78,SW,236,7.5,10.0,92,0.00,,OVC017,0.00,VWS V14.01,2013-02-11 06:35:00,
2013-02-11 01:40:00,50.8,48.6,29.78,SW,233,11.2,11.2,92,0.00,,OVC017,0.00,VWS V14.01,2013-02-11 06:40:00,
2013-02-11 01:45:00,51.0,48.5,29.78,SSW,211,5.0,11.2,91,0.00,,OVC017,0.00,VWS V14.01,2013-02-11 06:45:00,
2013-02-11 01:50:00,50.9,48.4,29.78,South,172,5.0,10.0,91,0.00,,OVC017,0.00,VWS V14.01,2013-02-11 06:50:00,
2013-02-11 01:55:00,51.0,48.5,29.78,SW,229,8.8,10.0,91,0.00,,OVC017,0.00,VWS V14.01,2013-02-11 06:55:00,
2013-02-11 02:00:00,51.2,48.4,29.78,NW,319,5.0,13.8,90,0.00,,OVC017,0.00,VWS V14.01,2013-02-11 07:00:00,
2013-02-11 02:05:00,51.2,48.4,29.78,SSW,208,6.2,10.0,90,0.00,,OVC017,0.00,VWS V14.01,2013-02-11 07:05:00,
2013-02-11 02:10:00,51.4,48.6,29.78,South,171,8.8,16.2,90,0.00,,OVC017,0.00,VWS V14.01,2013-02-11 07:10:00,
2013-02-11 02:15:00,51.4,48.3,29.77,SE,127,6.2,16.2,89,0.00,,OVC017,0.00,VWS V14.01,2013-02-11 07:15:00,
2013-02-11 02:20:00,51.3,48.2,29.77,South,180,7.5,18.8,89,0.00,,OVC017,0.00,VWS V14.01,2013-02-11 07:20:00,
2013-02-11 02:25:00,51.1,47.7,29.77,SE,146,5.0,18.8,88,0.00,,OVC017,0.00,VWS V14.01,2013-02-11 07:25:00,
2013-02-11 02:30:00,50.9,47.5,29.77,SSE,166,6.2,18.8,88,0.00,,OVC017,0.00,VWS V14.01,2013-02-11 07:30:00,
2013-02-11 02:35:00,50.8,47.1,29.77,South,174,5.0,11.2,87,0.00,,SCT022,0.00,VWS V14.01,2013-02-11 07:35:00,
2013-02-11 02:40:00,50.7,47.0,29.78,SW,226,10.0,11.2,87,0.00,,SCT022,0.00,VWS V14.01,2013-02-11 07:40:00,
2013-02-11 02:45:00,50.7,46.7,29.78,SSE,167,3.8,16.2,86,0.00,,SCT022,0.00,VWS V14.01,2013-02-11 07:45:00,
2013-02-11 02:50:00,50.6,46.3,29.77,South,173,3.8,12.5,85,0.00,,SCT022,0.00,VWS V14.01,2013-02-11 07:50:00,
2013-02-11 02:55:00,50.6,46.0,29.78,SSW,208,7.5,15.0,84,0.00,,SCT022,0.00,VWS V14.01,2013-02-11 07:55:00,
2013-02-11 03:00:00,50.7,45.7,29.78,SW,228,8.8,20.0,83,0.00,,SCT022,0.00,VWS V14.01,2013-02-11 08:00:00,
2013-02-11 03:05:00,50.7,45.4,29.78,SSW,195,6.2,11.2,82,0.00,,SCT022,0.00,VWS V14.01,2013-02-11 08:05:00,
2013-02-11 03:10:00,50.7,45.1,29.78,SW,217,10.0,18.8,81,0.00,,SCT022,0.00,VWS V14.01,2013-02-11 08:10:00,
2013-02-11 03:15:00,50.6,45.0,29.78,SSE,156,3.8,18.8,81,0.00,,SCT022,0.00,VWS V14.01,2013-02-11 08:15:00,
2013-02-11 03:20:00,50.5,44.9,29.78,WSW,241,8.8,12.5,81,0.00,,SCT022,0.00,VWS V14.01,2013-02-11 08:20:00,
2013-02-11 03:25:00,50.4,44.5,29.77,SSW,194,6.2,13.8,80,0.00,,SCT022,0.00,VWS V14.01,2013-02-11 08:25:00,
2013-02-11 03:30:00,50.4,44.1,29.77,SSE,158,7.5,27.5,79,0.00,,SCT022,0.00,VWS V14.01,2013-02-11 08:30:00,
2013-02-11 03:35:00,50.4,44.1,29.77,SSE,153,3.8,13.8,79,0.00,,CLR,0.00,VWS V14.01,2013-02-11 08:35:00,
2013-02-11 03:40:00,50.4,42.8,29.77,South,187,15.0,21.2,75,0.00,,CLR,0.00,VWS V14.01,2013-02-11 08:40:00,
2013-02-11 03:45:00,50.5,41.8,29.77,South,184,10.0,21.2,72,0.00,,CLR,0.00,VWS V14.01,2013-02-11 08:45:00,
2013-02-11 03:50:00,50.5,41.5,29.77,South,187,7.5,20.0,71,0.00,,CLR,0.00,VWS V14.01,2013-02-11 08:50:00,
2013-02-11 03:55:00,50.4,40.6,29.77,SSE,155,11.2,20.0,69,0.00,,CLR,0.00,VWS V14.01,2013-02-11 08:55:00,
2013-02-11 04:00:00,50.5,40.0,29.77,SSE,160,8.8,20.0,67,0.00,,CLR,0.00,VWS V14.01,2013-02-11 09:00:00,
2013-02-11 04:05:00,50.4,39.9,29.77,SSW,204,7.5,21.2,67,0.00,,CLR,0.00,VWS V14.01,2013-02-11 09:05:00,
2013-02-11 04:10:00,50.3,39.8,29.77,SSE,165,7.5,22.5,67,0.00,,CLR,0.00,VWS V14.01,2013-02-11 09:10:00,
2013-02-11 04:15:00,50.3,39.4,29.77,SSW,211,11.2,25.0,66,0.00,,CLR,0.00,VWS V14.01,2013-02-11 09:15:00,
2013-02-11 04:20:00,50.2,38.9,29.77,SSE,160,12.5,20.0,65,0.00,,CLR,0.00,VWS V14.01,2013-02-11 09:20:00,
2013-02-11 04:25:00,50.1,38.0,29.78,SW,221,20.0,23.8,63,0.00,,CLR,0.00,VWS V14.01,2013-02-11 09:25:00,
2013-02-11 04:30:00,50.1,36.8,29.78,SSE,162,8.8,28.8,60,0.00,,CLR,0.00,VWS V14.01,2013-02-11 09:30:00,
2013-02-11 04:35:00,49.9,37.0,29.78,South,181,7.5,23.8,61,0.00,,CLR,0.00,VWS V14.01,2013-02-11 09:35:00,
2013-02-11 04:40:00,49.6,37.5,29.78,SSW,203,11.2,23.8,63,0.00,,CLR,0.00,VWS V14.01,2013-02-11 09:40:00,
2013-02-11 04:45:00,49.2,37.6,29.78,SW,217,8.8,23.8,64,0.00,,CLR,0.00,VWS V14.01,2013-02-11 09:45:00,
2013-02-11 04:50:00,49.1,36.7,29.79,SSW,203,5.0,22.5,62,0.00,,CLR,0.00,VWS V14.01,2013-02-11 09:50:00,
2013-02-11 04:55:00,49.0,36.6,29.79,WSW,242,18.8,22.5,62,0.00,,CLR,0.00,VWS V14.01,2013-02-11 09:55:00,
2013-02-11 05:00:00,49.0,34.9,29.79,SE,138,12.5,28.8,58,0.00,,CLR,0.00,VWS V14.01,2013-02-11 10:00:00,
2013-02-11 05:05:00,48.9,33.9,29.79,WSW,250,15.0,32.5,56,0.00,,CLR,0.00,VWS V14.01,2013-02-11 10:05:00,
2013-02-11 05:10:00,48.9,34.3,29.79,SW,228,6.2,32.5,57,0.00,,CLR,0.00,VWS V14.01,2013-02-11 10:10:00,
2013-02-11 05:15:00,48.6,34.5,29.80,SSE,150,11.2,32.5,58,0.00,,CLR,0.00,VWS V14.01,2013-02-11 10:15:00,
2013-02-11 05:20:00,48.4,34.3,29.80,SSW,194,10.0,15.0,58,0.00,,CLR,0.00,VWS V14.01,2013-02-11 10:20:00,
2013-02-11 05:25:00,48.3,34.2,29.80,SSE,162,6.2,26.2,58,0.00,,CLR,0.00,VWS V14.01,2013-02-11 10:25:00,
2013-02-11 05:30:00,48.0,33.9,29.80,WSW,241,6.2,26.2,58,0.00,,CLR,0.00,VWS V14.01,2013-02-11 10:30:00,
2013-02-11 05:35:00,47.6,33.6,29.81,SSW,204,6.2,27.5,58,0.00,,CLR,0.00,VWS V14.01,2013-02-11 10:35:00,
2013-02-11 05:40:00,47.3,33.7,29.81,WSW,238,12.5,27.5,59,0.00,,CLR,0.00,VWS V14.01,2013-02-11 10:40:00,
2013-02-11 05:45:00,47.1,33.5,29.81,SSW,198,7.5,27.5,59,0.00,,CLR,0.00,VWS V14.01,2013-02-11 10:45:00,
2013-02-11 05:50:00,46.8,33.7,29.81,SSW,197,8.8,26.2,60,0.00,,CLR,0.00,VWS V14.01,2013-02-11 10:50:00,
2013-02-11 05:55:00,46.5,33.4,29.81,South,172,8.8,26.2,60,0.00,,CLR,0.00,VWS V14.01,2013-02-11 10:55:00,
2013-02-11 06:00:00,46.3,33.2,29.82,SW,226,15.0,26.2,60,0.00,,CLR,0.00,VWS V14.01,2013-02-11 11:00:00,
2013-02-11 06:05:00,46.0,33.3,29.82,WSW,246,8.8,12.5,61,0.00,,CLR,0.00,VWS V14.01,2013-02-11 11:05:00,
2013-02-11 06:10:00,45.5,33.2,29.82,West,276,5.0,12.5,62,0.00,,CLR,0.00,VWS V14.01,2013-02-11 11:10:00,
2013-02-11 06:15:00,45.2,33.0,29.82,SW,235,18.8,23.8,62,0.00,,CLR,0.00,VWS V14.01,2013-02-11 11:15:00,
2013-02-11 06:20:00,44.9,33.1,29.83,WSW,251,20.0,23.8,63,0.00,,CLR,0.00,VWS V14.01,2013-02-11 11:20:00,
2013-02-11 06:25:00,44.7,32.9,29.83,WSW,241,7.5,26.2,63,0.00,,CLR,0.00,VWS V14.01,2013-02-11 11:25:00,
2013-02-11 06:30:00,44.4,33.0,29.83,WSW,238,10.0,28.8,64,0.00,,CLR,0.00,VWS V14.01,2013-02-11 11:30:00,
2013-02-11 06:35:00,44.1,33.1,29.84,SW,221,7.5,25.0,65,0.00,,CLR,0.00,VWS V14.01,2013-02-11 11:35:00,
2013-02-11 06:40:00,43.7,33.1,29.84,SSW,208,7.5,25.0,66,0.00,,CLR,0.00,VWS V14.01,2013-02-11 11:40:00,
2013-02-11 06:45:00,43.5,32.9,29.85,WSW,238,12.5,26.2,66,0.00,,CLR,0.00,VWS V14.01,2013-02-11 11:45:00,
2013-02-11 06:50:00,43.2,32.6,29.85,SW,228,7.5,22.5,66,0.00,,CLR,0.00,VWS V14.01,2013-02-11 11:50:00,
2013-02-11 06:55:00,43.0,32.4,29.85,SW,229,8.8,25.0,66,0.00,,CLR,0.00,VWS V14.01,2013-02-11 11:55:00,
2013-02-11 07:00:00,42.8,32.2,29.86,West,270,10.0,25.0,66,0.00,,CLR,0.00,VWS V14.01,2013-02-11 12:00:00,
2013-02-11 07:05:00,42.3,31.0,29.86,West,278,16.2,27.5,64,0.00,,CLR,0.00,VWS V14.01,2013-02-11 12:05:00,
2013-02-11 07:09:00,41.7,30.0,29.87,SSE,159,10.0,27.5,63,0.00,,CLR,0.00,VWS V14.01,2013-02-11 12:09:00,
2013-02-11 07:14:00,41.2,29.6,29.86,WSW,251,12.5,27.5,63,0.00,,CLR,0.00,VWS V14.01,2013-02-11 12:14:00,
2013-02-11 07:15:00,41.1,29.5,29.86,SSW,197,8.8,27.5,63,0.00,,OVC036,0.00,VWS V14.01,2013-02-11 12:15:00,
2013-02-11 07:19:00,40.7,29.1,29.87,SW,235,11.2,25.0,63,0.00,,CLR,0.00,VWS V14.01,2013-02-11 12:19:00,
2013-02-11 07:24:00,40.3,28.7,29.88,SW,218,12.5,28.8,63,0.00,,CLR,0.00,VWS V14.01,2013-02-11 12:24:00,
2013-02-11 07:29:00,39.9,28.3,29.88,SW,228,10.0,28.8,63,0.00,,CLR,0.00,VWS V14.01,2013-02-11 12:29:00,
2013-02-11 07:30:00,39.8,28.2,29.88,SW,223,16.2,28.8,63,0.00,,OVC036,0.00,VWS V14.01,2013-02-11 12:30:00,
2013-02-11 07:34:00,39.5,28.4,29.88,WSW,244,6.2,18.8,64,0.00,,CLR,0.00,VWS V14.01,2013-02-11 12:34:00,
2013-02-11 07:39:00,39.3,28.9,29.89,SSW,211,8.8,18.8,66,0.00,,CLR,0.00,VWS V14.01,2013-02-11 12:39:00,
2013-02-11 07:45:00,39.2,28.4,29.89,SSW,212,13.8,27.5,65,0.00,,CLR,0.00,VWS V14.01,2013-02-11 12:45:00,
2013-02-11 07:50:00,39.2,28.8,29.89,SW,232,6.2,15.0,66,0.00,,CLR,0.00,VWS V14.01,2013-02-11 12:50:00,
2013-02-11 07:55:00,39.1,29.1,29.89,WSW,251,3.8,15.0,67,0.00,,CLR,0.00,VWS V14.01,2013-02-11 12:55:00,
2013-02-11 08:00:00,39.0,28.6,29.89,WSW,238,16.2,18.8,66,0.00,,CLR,0.00,VWS V14.01,2013-02-11 13:00:00,
2013-02-11 08:04:00,38.9,28.5,29.89,SW,225,7.5,27.5,66,0.00,,CLR,0.00,VWS V14.01,2013-02-11 13:04:00,
2013-02-11 08:10:00,38.8,28.4,29.89,SSW,212,11.2,27.5,66,0.00,,CLR,0.00,VWS V14.01,2013-02-11 13:10:00,
2013-02-11 08:15:00,38.7,28.3,29.90,South,179,15.0,27.5,66,0.00,,CLR,0.00,VWS V14.01,2013-02-11 13:15:00,
2013-02-11 08:20:00,38.6,28.2,29.90,SSE,162,6.2,17.5,66,0.00,,CLR,0.00,VWS V14.01,2013-02-11 13:20:00,
2013-02-11 08:24:00,38.4,27.7,29.90,SW,221,15.0,23.8,65,0.00,,CLR,0.00,VWS V14.01,2013-02-11 13:24:00,
2013-02-11 08:29:00,38.4,28.0,29.90,East,79,6.2,23.8,66,0.00,,CLR,0.00,VWS V14.01,2013-02-11 13:29:00,
2013-02-11 08:30:00,38.4,28.0,29.90,SW,225,15.0,23.8,66,0.00,,OVC036,0.00,VWS V14.01,2013-02-11 13:30:00,
2013-02-11 08:34:00,38.4,27.7,29.90,South,169,12.5,26.2,65,0.00,,SCT036,0.00,VWS V14.01,2013-02-11 13:34:00,
2013-02-11 08:39:00,38.4,27.7,29.90,WSW,246,16.2,26.2,65,0.00,,SCT036,0.00,VWS V14.01,2013-02-11 13:39:00,
2013-02-11 08:44:00,38.4,27.7,29.91,SW,231,20.0,26.2,65,0.00,,SCT036,0.00,VWS V14.01,2013-02-11 13:44:00,
2013-02-11 08:45:00,38.4,27.3,29.91,WSW,245,16.2,26.2,64,0.00,,OVC036,0.00,VWS V14.01,2013-02-11 13:45:00,
2013-02-11 08:49:00,38.4,26.9,29.91,West,271,12.5,23.8,63,0.00,,SCT036,0.00,VWS V14.01,2013-02-11 13:49:00,
2013-02-11 08:54:00,38.3,27.2,29.91,SW,226,17.5,31.2,64,0.00,,SCT036,0.00,VWS V14.01,2013-02-11 13:54:00,
2013-02-11 08:59:00,38.3,27.2,29.91,SE,124,11.2,33.8,64,0.00,,SCT036,0.00,VWS V14.01,2013-02-11 13:59:00,
2013-02-11 09:00:00,38.3,27.2,29.91,SW,228,15.0,33.8,64,0.00,,OVC036,0.00,VWS V14.01,2013-02-11 14:00:00,
2013-02-11 09:04:00,38.2,27.5,29.92,South,186,8.8,18.8,65,0.00,,SCT036,0.00,VWS V14.01,2013-02-11 14:04:00,
2013-02-11 09:09:00,38.3,27.6,29.92,South,191,10.0,18.8,65,0.00,,SCT036,0.00,VWS V14.01,2013-02-11 14:09:00,
2013-02-11 09:14:00,38.3,27.6,29.92,SW,231,12.5,20.0,65,0.00,,SCT036,0.00,VWS V14.01,2013-02-11 14:14:00,
2013-02-11 09:15:00,38.3,27.6,29.92,WNW,294,10.0,20.0,65,0.00,,OVC036,0.00,VWS V14.01,2013-02-11 14:15:00,
2013-02-11 09:19:00,38.2,26.7,29.93,South,179,11.2,30.0,63,0.00,,SCT036,0.00,VWS V14.01,2013-02-11 14:19:00,
2013-02-11 09:24:00,38.1,27.0,29.93,SW,228,17.5,30.0,64,0.00,,SCT036,0.00,VWS V14.01,2013-02-11 14:24:00,
2013-02-11 09:29:00,38.1,27.0,29.92,SSW,211,18.8,30.0,64,0.00,,SCT036,0.00,VWS V14.01,2013-02-11 14:29:00,
2013-02-11 09:30:00,38.1,27.0,29.92,SW,222,15.0,30.0,64,0.00,,OVC036,0.00,VWS V14.01,2013-02-11 14:30:00,
2013-02-11 09:34:00,38.1,27.0,29.93,SSE,156,11.2,22.5,64,0.00,,OVC036,0.00,VWS V14.01,2013-02-11 14:34:00,
2013-02-11 09:39:00,37.9,26.8,29.93,SW,219,16.2,25.0,64,0.00,,OVC036,0.00,VWS V14.01,2013-02-11 14:39:00,
2013-02-11 09:44:00,37.7,27.0,29.93,SW,228,11.2,25.0,65,0.00,,OVC036,0.00,VWS V14.01,2013-02-11 14:44:00,
2013-02-11 09:45:00,37.7,27.0,29.94,West,260,10.0,25.0,65,0.00,,OVC036,0.00,VWS V14.01,2013-02-11 14:45:00,
2013-02-11 09:49:00,37.6,26.9,29.93,SSW,195,5.0,18.8,65,0.00,,OVC036,0.00,VWS V14.01,2013-02-11 14:49:00,
2013-02-11 09:54:00,37.4,26.0,29.93,SW,232,2.5,18.8,63,0.00,,OVC036,0.00,VWS V14.01,2013-02-11 14:54:00,
2013-02-11 09:59:00,37.2,26.2,29.94,SE,132,6.2,18.8,64,0.00,,OVC036,0.00,VWS V14.01,2013-02-11 14:59:00,
2013-02-11 10:00:00,37.2,26.2,29.94,SSW,195,8.8,18.8,64,0.00,,OVC036,0.00,VWS V14.01,2013-02-11 15:00:00,
2013-02-11 10:05:00,37.2,26.5,29.94,WNW,288,12.5,13.8,65,0.00,,OVC036,0.00,VWS V14.01,2013-02-11 15:05:00,
2013-02-11 10:10:00,37.2,26.9,29.94,SSE,165,3.8,13.8,66,0.00,,OVC036,0.00,VWS V14.01,2013-02-11 15:10:00,
2013-02-11 10:15:00,37.3,26.6,29.94,WSW,253,10.0,18.8,65,0.00,,OVC036,0.00,VWS V14.01,2013-02-11 15:15:00,
2013-02-11 10:20:00,37.3,26.6,29.95,SW,225,10.0,20.0,65,0.00,,OVC036,0.00,VWS V14.01,2013-02-11 15:20:00,
2013-02-11 10:25:00,37.4,26.4,29.95,SW,225,10.0,20.0,64,0.00,,OVC036,0.00,VWS V14.01,2013-02-11 15:25:00,
2013-02-11 10:30:00,37.4,26.0,29.95,SSW,200,6.2,33.8,63,0.00,,OVC036,0.00,VWS V14.01,2013-02-11 15:30:00,
2013-02-11 10:35:00,37.4,26.4,29.95,SW,225,17.5,18.8,64,0.00,,OVC036,0.00,VWS V14.01,2013-02-11 15:35:00,
2013-02-11 10:40:00,37.4,26.0,29.95,SW,222,11.2,31.2,63,0.00,,OVC036,0.00,VWS V14.01,2013-02-11 15:40:00,
2013-02-11 10:45:00,37.6,26.5,29.95,WSW,239,6.2,31.2,64,0.00,,OVC036,0.00,VWS V14.01,2013-02-11 15:45:00,
2013-02-11 10:50:00,37.7,26.3,29.95,SSW,208,11.2,23.8,63,0.00,,OVC036,0.00,VWS V14.01,2013-02-11 15:50:00,
2013-02-11 10:55:00,37.8,26.0,29.95,SW,233,15.0,23.8,62,0.00,,OVC036,0.00,VWS V14.01,2013-02-11 15:55:00,
2013-02-11 11:00:00,37.9,26.8,29.95,SW,225,10.0,23.8,64,0.00,,OVC036,0.00,VWS V14.01,2013-02-11 16:00:00,
2013-02-11 11:05:00,38.0,26.9,29.95,SW,229,6.2,22.5,64,0.00,,OVC036,0.00,VWS V14.01,2013-02-11 16:05:00,
2013-02-11 11:11:00,38.1,26.2,29.96,WSW,239,13.8,13.8,62,0.00,,OVC036,0.00,VWS V14.01,2013-02-11 16:11:00,
2013-02-11 11:15:00,40.1,27.3,29.96,SE,136,13.8,30.0,60,0.00,,-RA,0.00,VWS V14.01,2013-02-11 16:15:00,
2013-02-11 11:16:00,38.3,26.8,29.96,SSW,197,13.8,18.8,63,0.00,,OVC036,0.00,VWS V14.01,2013-02-11 16:16:00,
2013-02-11 11:21:00,38.5,27.0,29.97,SW,224,33.8,33.8,63,0.00,,OVC036,0.00,VWS V14.01,2013-02-11 16:21:00,
2013-02-11 11:26:00,38.5,26.6,29.97,SW,221,11.2,37.5,62,0.00,,OVC036,0.00,VWS V14.01,2013-02-11 16:26:00,
2013-02-11 11:30:00,40.8,28.0,29.96,SW,221,21.2,23.8,60,0.00,,-RA,0.00,VWS V14.01,2013-02-11 16:30:00,
2013-02-11 11:31:00,38.7,26.4,29.97,SW,233,7.5,15.0,61,0.00,,OVC036,0.00,VWS V14.01,2013-02-11 16:31:00,
2013-02-11 11:36:00,38.8,26.5,29.97,SSW,198,6.2,25.0,61,0.00,,OVC038,0.00,VWS V14.01,2013-02-11 16:36:00,
2013-02-11 11:41:00,39.2,27.7,29.97,West,262,6.2,25.0,63,0.00,,OVC038,0.00,VWS V14.01,2013-02-11 16:41:00,
2013-02-11 11:45:00,42.0,27.5,29.96,SW,221,15.0,30.0,56,0.00,,-RA,0.00,VWS V14.01,2013-02-11 16:45:00,
2013-02-11 11:46:00,39.4,27.1,29.97,SE,140,5.0,12.5,61,0.00,,OVC038,0.00,VWS V14.01,2013-02-11 16:46:00,
2013-02-11 11:51:00,39.6,26.9,29.97,South,191,20.0,22.5,60,0.00,,OVC038,0.00,VWS V14.01,2013-02-11 16:51:00,
2013-02-11 11:56:00,39.5,27.2,29.97,WSW,244,15.0,22.5,61,0.00,,OVC038,0.00,VWS V14.01,2013-02-11 16:56:00,
2013-02-11 12:00:00,41.3,27.2,29.96,WSW,248,8.8,30.0,57,0.00,,-RA,0.00,VWS V14.01,2013-02-11 17:00:00,
2013-02-11 12:01:00,39.5,26.8,29.97,WSW,239,10.0,28.8,60,0.00,,OVC038,0.00,VWS V14.01,2013-02-11 17:01:00,
2013-02-11 12:06:00,39.5,26.8,29.97,SW,231,10.0,28.8,60,0.00,,OVC038,0.00,VWS V14.01,2013-02-11 17:06:00,
2013-02-11 12:11:00,39.9,27.6,29.97,SSE,162,15.0,28.8,61,0.00,,OVC038,0.00,VWS V14.01,2013-02-11 17:11:00,
2013-02-11 12:15:00,42.7,27.7,29.95,SW,233,8.8,28.8,55,0.00,,-RA,0.00,VWS V14.01,2013-02-11 17:15:00,
2013-02-11 12:16:00,40.2,27.8,29.96,SW,215,6.2,17.5,61,0.00,,OVC038,0.00,VWS V14.01,2013-02-11 17:16:00,
2013-02-11 12:21:00,40.6,28.2,29.96,South,180,5.0,18.8,61,0.00,,OVC038,0.00,VWS V14.01,2013-02-11 17:21:00,
2013-02-11 12:26:00,40.5,27.7,29.96,South,177,8.8,23.8,60,0.00,,OVC038,0.00,VWS V14.01,2013-02-11 17:26:00,
2013-02-11 12:30:00,42.3,28.6,29.96,WSW,255,12.5,27.5,58,0.00,,-RA,0.00,VWS V14.01,2013-02-11 17:30:00,
2013-02-11 12:31:00,40.8,27.6,29.96,SE,131,12.5,25.0,59,0.00,,OVC038,0.00,VWS V14.01,2013-02-11 17:31:00,
2013-02-11 12:36:00,41.0,27.8,29.96,West,263,22.5,30.0,59,0.00,,OVC040,0.00,VWS V14.01,2013-02-11 17:36:00,
2013-02-11 12:41:00,41.3,28.1,29.96,SSE,150,6.2,30.0,59,0.00,,OVC040,0.00,VWS V14.01,2013-02-11 17:41:00,
2013-02-11 12:45:00,41.7,27.6,29.96,SW,218,15.0,25.0,57,0.00,,-RA,0.00,VWS V14.01,2013-02-11 17:45:00,
2013-02-11 12:46:00,41.9,27.4,29.96,WSW,248,12.5,18.8,56,0.00,,OVC040,0.00,VWS V14.01,2013-02-11 17:46:00,
2013-02-11 12:51:00,41.5,27.0,29.96,WSW,240,18.8,22.5,56,0.00,,OVC040,0.00,VWS V14.01,2013-02-11 17:51:00,
2013-02-11 12:56:00,41.6,27.5,29.96,SW,233,16.2,30.0,57,0.00,,OVC040,0.00,VWS V14.01,2013-02-11 17:56:00,
2013-02-11 13:00:00,41.5,27.4,29.96,SSW,211,6.2,23.8,57,0.00,,-RA,0.00,VWS V14.01,2013-02-11 18:00:00,
2013-02-11 13:01:00,41.3,27.2,29.96,SSW,208,11.2,28.8,57,0.00,,OVC040,0.00,VWS V14.01,2013-02-11 18:01:00,
2013-02-11 13:06:00,41.6,27.1,29.95,WSW,243,15.0,28.8,56,0.00,,OVC040,0.00,VWS V14.01,2013-02-11 18:06:00,
2013-02-11 13:11:00,42.4,28.3,29.96,SW,231,10.0,28.8,57,0.00,,OVC040,0.00,VWS V14.01,2013-02-11 18:11:00,
2013-02-11 13:15:00,41.9,27.4,29.97,West,274,10.0,21.2,56,0.00,,-RA,0.00,VWS V14.01,2013-02-11 18:15:00,
2013-02-11 13:16:00,42.6,27.6,29.96,West,259,10.0,21.2,55,0.00,,OVC040,0.00,VWS V14.01,2013-02-11 18:16:00,
2013-02-11 13:20:00,42.4,27.4,29.96,WSW,251,15.0,27.5,55,0.00,,OVC040,0.00,VWS V14.01,2013-02-11 18:20:00,
2013-02-11 13:25:00,42.3,28.2,29.96,SW,233,6.2,27.5,57,0.00,,OVC040,0.00,VWS V14.01,2013-02-11 18:25:00,
2013-02-11 13:30:00,42.3,27.7,29.96,WSW,255,11.2,12.5,56,0.00,,OVC040,0.00,VWS V14.01,2013-02-11 18:30:00,
2013-02-11 13:35:00,42.5,27.0,29.97,SW,233,16.2,25.0,54,0.00,,SCT040,0.00,VWS V14.01,2013-02-11 18:35:00,
2013-02-11 13:40:00,42.1,27.1,29.97,West,272,13.8,25.0,55,0.00,,SCT040,0.00,VWS V14.01,2013-02-11 18:40:00,
2013-02-11 13:45:00,41.7,27.6,29.96,South,169,10.0,21.2,57,0.00,,SCT040,0.00,VWS V14.01,2013-02-11 18:45:00,
2013-02-11 13:50:00,41.7,27.2,29.96,ESE,117,15.0,21.2,56,0.00,,SCT040,0.00,VWS V14.01,2013-02-11 18:50:00,
2013-02-11 13:55:00,41.5,27.0,29.96,SW,235,13.8,23.8,56,0.00,,SCT040,0.00,VWS V14.01,2013-02-11 18:55:00,
2013-02-11 14:00:00,41.5,27.4,29.96,SW,222,5.0,6.2,57,0.00,,SCT040,0.00,VWS V14.01,2013-02-11 19:00:00,
2013-02-11 14:05:00,41.7,27.2,29.96,SSW,212,12.5,21.2,56,0.00,,SCT040,0.00,VWS V14.01,2013-02-11 19:05:00,
2013-02-11 14:10:00,41.7,28.0,29.96,NW,316,7.5,21.2,58,0.00,,SCT040,0.00,VWS V14.01,2013-02-11 19:10:00,
2013-02-11 14:15:00,41.9,27.4,29.96,South,176,8.8,13.8,56,0.00,,SCT040,0.00,VWS V14.01,2013-02-11 19:15:00,
2013-02-11 14:20:00,42.0,27.9,29.96,West,262,18.8,20.0,57,0.00,,SCT040,0.00,VWS V14.01,2013-02-11 19:20:00,
2013-02-11 14:25:00,42.0,27.9,29.96,SSW,213,17.5,20.0,57,0.00,,SCT040,0.00,VWS V14.01,2013-02-11 19:25:00,
2013-02-11 14:30:00,42.3,28.2,29.96,SW,224,20.0,23.8,57,0.00,,SCT040,0.00,VWS V14.01,2013-02-11 19:30:00,
2013-02-11 14:35:00,42.1,27.5,29.97,West,260,7.5,23.8,56,0.00,,BKN041,0.00,VWS V14.01,2013-02-11 19:35:00,
2013-02-11 14:40:00,42.2,28.1,29.97,South,169,8.8,23.8,57,0.00,,BKN041,0.00,VWS V14.01,2013-02-11 19:40:00,
2013-02-11 14:45:00,42.4,27.8,29.97,SSW,203,18.8,18.8,56,0.00,,BKN041,0.00,VWS V14.01,2013-02-11 19:45:00,
2013-02-11 14:50:00,42.5,28.4,29.98,West,266,10.0,22.5,57,0.00,,BKN041,0.00,VWS V14.01,2013-02-11 19:50:00,
2013-02-11 14:55:00,42.4,28.3,29.98,WSW,241,11.2,23.8,57,0.00,,BKN041,0.00,VWS V14.01,2013-02-11 19:55:00,
2013-02-11 15:00:00,42.2,28.1,29.98,SSW,194,18.8,22.5,57,0.00,,BKN041,0.00,VWS V14.01,2013-02-11 20:00:00,
2013-02-11 15:05:00,42.3,28.2,29.98,SE,146,5.0,22.5,57,0.00,,BKN041,0.00,VWS V14.01,2013-02-11 20:05:00,
2013-02-11 15:10:00,42.3,28.6,29.98,WSW,248,10.0,22.5,58,0.00,,BKN041,0.00,VWS V14.01,2013-02-11 20:10:00,
2013-02-11 15:15:00,42.0,27.9,29.99,West,262,13.8,17.5,57,0.00,,BKN041,0.00,VWS V14.01,2013-02-11 20:15:00,
2013-02-11 15:20:00,41.9,28.2,29.99,West,264,18.8,22.5,58,0.00,,BKN041,0.00,VWS V14.01,2013-02-11 20:20:00,
2013-02-11 15:25:00,41.9,27.8,29.99,WSW,239,12.5,28.8,57,0.00,,BKN041,0.00,VWS V14.01,2013-02-11 20:25:00,
2013-02-11 15:30:00,41.7,28.0,29.99,SW,221,10.0,18.8,58,0.00,,BKN041,0.00,VWS V14.01,2013-02-11 20:30:00,
2013-02-11 15:35:00,42.2,28.9,30.00,North,360,8.8,20.0,59,0.00,,BKN041,0.00,VWS V14.01,2013-02-11 20:35:00,
2013-02-11 15:40:00,42.3,28.2,29.99,SSW,205,10.0,31.2,57,0.00,,BKN041,0.00,VWS V14.01,2013-02-11 20:40:00,
2013-02-11 15:45:00,42.2,28.1,30.00,SSW,201,10.0,15.0,57,0.00,,BKN041,0.00,VWS V14.01,2013-02-11 20:45:00,
2013-02-11 15:50:00,42.3,28.2,30.00,ESE,121,10.0,15.0,57,0.00,,BKN041,0.00,VWS V14.01,2013-02-11 20:50:00,
2013-02-11 15:55:00,42.4,27.8,30.00,West,269,15.0,17.5,56,0.00,,BKN041,0.00,VWS V14.01,2013-02-11 20:55:00,
2013-02-11 16:00:00,42.2,28.1,30.00,WNW,290,5.0,12.5,57,0.00,,BKN041,0.00,VWS V14.01,2013-02-11 21:00:00,
2013-02-11 16:05:00,42.1,27.5,30.00,West,271,5.0,17.5,56,0.00,,BKN041,0.00,VWS V14.01,2013-02-11 21:05:00,
2013-02-11 16:10:00,41.8,28.1,30.00,SW,219,8.8,17.5,58,0.00,,BKN041,0.00,VWS V14.01,2013-02-11 21:10:00,
2013-02-11 16:15:00,41.8,28.1,30.01,WSW,248,12.5,20.0,58,0.00,,BKN041,0.00,VWS V14.01,2013-02-11 21:15:00,
2013-02-11 16:20:00,41.8,28.5,30.00,WSW,241,8.8,23.8,59,0.00,,BKN041,0.00,VWS V14.01,2013-02-11 21:20:00,
2013-02-11 16:25:00,41.9,28.2,30.00,WSW,243,6.2,23.8,58,0.00,,BKN041,0.00,VWS V14.01,2013-02-11 21:25:00,
2013-02-11 16:30:00,41.7,28.0,30.00,SSW,207,10.0,13.8,58,0.00,,BKN041,0.00,VWS V14.01,2013-02-11 21:30:00,
2013-02-11 16:35:00,41.6,27.9,30.00,WSW,248,17.5,23.8,58,0.00,,OVC049,0.00,VWS V14.01,2013-02-11 21:35:00,
2013-02-11 16:40:00,41.7,28.0,30.00,WSW,255,3.8,23.8,58,0.00,,OVC049,0.00,VWS V14.01,2013-02-11 21:40:00,
2013-02-11 16:45:00,41.7,28.0,30.01,SW,220,5.0,7.5,58,0.00,,OVC049,0.00,VWS V14.01,2013-02-11 21:45:00,
2013-02-11 16:50:00,42.0,28.3,30.00,South,169,11.2,15.0,58,0.00,,OVC049,0.00,VWS V14.01,2013-02-11 21:50:00,
2013-02-11 16:55:00,41.9,27.8,30.00,SW,218,15.0,22.5,57,0.00,,OVC049,0.00,VWS V14.01,2013-02-11 21:55:00,
2013-02-11 17:00:00,41.7,27.6,30.00,WSW,238,22.5,22.5,57,0.00,,OVC049,0.00,VWS V14.01,2013-02-11 22:00:00,
2013-02-11 17:05:00,41.6,27.9,30.01,WSW,241,7.5,25.0,58,0.00,,OVC049,0.00,VWS V14.01,2013-02-11 22:05:00,
2013-02-11 17:10:00,41.6,27.9,30.01,SE,124,3.8,25.0,58,0.00,,OVC049,0.00,VWS V14.01,2013-02-11 22:10:00,
2013-02-11 17:15:00,41.5,27.8,30.01,SSW,210,3.8,5.0,58,0.00,,OVC049,0.00,VWS V14.01,2013-02-11 22:15:00,
2013-02-11 17:20:00,41.5,28.3,30.01,SW,221,7.5,26.2,59,0.00,,OVC049,0.00,VWS V14.01,2013-02-11 22:20:00,
2013-02-11 17:25:00,41.5,28.3,30.01,SSW,208,5.0,26.2,59,0.00,,OVC049,0.00,VWS V14.01,2013-02-11 22:25:00,
2013-02-11 17:30:00,41.5,28.7,30.02,SW,229,2.5,7.5,60,0.00,,OVC049,0.00,VWS V14.01,2013-02-11 22:30:00,
2013-02-11 17:35:00,41.5,28.7,30.02,SW,215,3.8,17.5,60,0.00,,OVC047,0.00,VWS V14.01,2013-02-11 22:35:00,
2013-02-11 17:40:00,41.5,28.7,30.02,SW,222,8.8,17.5,60,0.00,,OVC047,0.00,VWS V14.01,2013-02-11 22:40:00,
2013-02-11 17:45:00,41.4,29.0,30.02,West,260,2.5,2.5,61,0.00,,OVC047,0.00,VWS V14.01,2013-02-11 22:45:00,
2013-02-11 17:50:00,41.4,28.6,30.02,WSW,245,3.8,16.2,60,0.00,,OVC047,0.00,VWS V14.01,2013-02-11 22:50:00,
2013-02-11 17:55:00,41.3,28.9,30.02,East,79,7.5,16.2,61,0.00,,OVC047,0.00,VWS V14.01,2013-02-11 22:55:00,
2013-02-11 18:00:00,41.3,28.9,30.02,WSW,240,3.8,3.8,61,0.00,,OVC047,0.00,VWS V14.01,2013-02-11 23:00:00,
2013-02-11 18:05:00,41.3,28.5,30.02,SW,236,3.8,8.8,60,0.00,,OVC047,0.00,VWS V14.01,2013-02-11 23:05:00,
2013-02-11 18:10:00,41.4,28.6,30.02,SW,221,6.2,16.2,60,0.00,,OVC047,0.00,VWS V14.01,2013-02-11 23:10:00,
2013-02-11 18:15:00,41.5,28.3,30.02,SW,217,8.8,12.5,59,0.00,,OVC047,0.00,VWS V14.01,2013-02-11 23:15:00,
2013-02-11 18:20:00,41.5,28.3,30.02,SW,219,10.0,15.0,59,0.00,,OVC047,0.00,VWS V14.01,2013-02-11 23:20:00,
2013-02-11 18:25:00,41.5,27.8,30.03,WSW,240,7.5,15.0,58,0.00,,OVC047,0.00,VWS V14.01,2013-02-11 23:25:00,
2013-02-11 18:30:00,41.5,27.8,30.03,SSE,156,3.8,3.8,58,0.00,,OVC047,0.00,VWS V14.01,2013-02-11 23:30:00,
2013-02-11 18:35:00,41.4,28.2,30.03,WNW,290,6.2,13.8,59,0.00,,BKN055,0.00,VWS V14.01,2013-02-11 23:35:00,
2013-02-11 18:40:00,41.3,27.6,30.03,WSW,251,11.2,16.2,58,0.00,,BKN055,0.00,VWS V14.01,2013-02-11 23:40:00,
2013-02-11 18:45:00,41.1,27.5,30.03,WSW,249,8.8,8.8,58,0.00,,BKN055,0.00,VWS V14.01,2013-02-11 23:45:00,
2013-02-11 18:50:00,40.9,27.3,30.03,West,280,5.0,11.2,58,0.00,,BKN055,0.00,VWS V14.01,2013-02-11 23:50:00,
2013-02-11 18:55:00,40.7,27.5,30.03,SSW,198,11.2,15.0,59,0.00,,BKN055,0.00,VWS V14.01,2013-02-11 23:55:00,
2013-02-11 19:00:00,40.6,27.8,30.04,SW,232,2.5,3.8,60,0.00,,BKN055,0.00,VWS V14.01,2013-02-12 00:00:00,
2013-02-11 19:05:00,40.4,27.6,30.04,SW,233,6.2,12.5,60,0.00,,BKN055,0.00,VWS V14.01,2013-02-12 00:05:00,
2013-02-11 19:10:00,40.3,27.5,30.04,West,279,6.2,12.5,60,0.00,,FEW046,0.00,VWS V14.01,2013-02-12 00:10:00,
2013-02-11 19:15:00,40.1,27.8,30.04,SW,230,6.2,8.8,61,0.00,,FEW046,0.00,VWS V14.01,2013-02-12 00:15:00,
2013-02-11 19:20:00,39.9,27.6,30.04,SSW,201,1.2,12.5,61,0.00,,FEW046,0.00,VWS V14.01,2013-02-12 00:20:00,
2013-02-11 19:25:00,39.7,27.8,30.05,SW,231,1.2,12.5,62,0.00,,FEW046,0.00,VWS V14.01,2013-02-12 00:25:00,
2013-02-11 19:30:00,39.5,28.0,30.05,WSW,246,2.5,2.5,63,0.00,,FEW046,0.00,VWS V14.01,2013-02-12 00:30:00,
2013-02-11 19:35:00,39.4,27.9,30.05,WSW,241,2.5,13.8,63,0.00,,FEW046,0.00,VWS V14.01,2013-02-12 00:35:00,
2013-02-11 19:40:00,39.1,27.6,30.05,SW,215,1.2,13.8,63,0.00,,FEW046,0.00,VWS V14.01,2013-02-12 00:40:00,
2013-02-11 19:45:00,39.1,28.0,30.05,SSW,203,2.5,5.0,64,0.00,,FEW046,0.00,VWS V14.01,2013-02-12 00:45:00,
2013-02-11 19:50:00,39.0,27.9,30.06,WSW,253,5.0,10.0,64,0.00,,FEW046,0.00,VWS V14.01,2013-02-12 00:50:00,
2013-02-11 19:55:00,39.0,27.9,30.06,SW,222,7.5,15.0,64,0.00,,FEW046,0.00,VWS V14.01,2013-02-12 00:55:00,
2013-02-11 20:00:00,39.0,27.9,30.06,SW,229,7.5,8.8,64,0.00,,FEW046,0.00,VWS V14.01,2013-02-12 01:00:00,
2013-02-11 20:05:00,39.1,28.0,30.06,WSW,242,7.5,10.0,64,0.00,,FEW046,0.00,VWS V14.01,2013-02-12 01:05:00,
2013-02-11 20:10:00,39.0,27.9,30.07,South,181,5.0,10.0,64,0.00,,FEW046,0.00,VWS V14.01,2013-02-12 01:10:00,
2013-02-11 20:15:00,38.9,28.1,30.07,SW,226,3.8,3.8,65,0.00,,FEW046,0.00,VWS V14.01,2013-02-12 01:15:00,
2013-02-11 20:20:00,38.8,28.1,30.07,WSW,257,5.0,7.5,65,0.00,,FEW046,0.00,VWS V14.01,2013-02-12 01:20:00,
2013-02-11 20:25:00,38.6,27.9,30.07,WSW,242,2.5,10.0,65,0.00,,FEW046,0.00,VWS V14.01,2013-02-12 01:25:00,
2013-02-11 20:30:00,38.6,27.9,30.07,SSW,195,5.0,6.2,65,0.00,,FEW046,0.00,VWS V14.01,2013-02-12 01:30:00,
2013-02-11 20:35:00,38.4,27.7,30.07,SW,226,1.2,8.8,65,0.00,,SCT048,0.00,VWS V14.01,2013-02-12 01:35:00,
2013-02-11 20:40:00,38.4,28.0,30.07,SW,214,5.0,13.8,66,0.00,,SCT048,0.00,VWS V14.01,2013-02-12 01:40:00,
2013-02-11 20:45:00,38.3,28.0,30.07,South,176,5.0,13.8,66,0.00,,SCT048,0.00,VWS V14.01,2013-02-12 01:45:00,
2013-02-11 20:50:00,38.1,27.8,30.08,WSW,250,5.0,8.8,66,0.00,,SCT048,0.00,VWS V14.01,2013-02-12 01:50:00,
2013-02-11 20:55:00,38.1,27.8,30.08,SW,222,5.0,10.0,66,0.00,,SCT048,0.00,VWS V14.01,2013-02-12 01:55:00,
2013-02-11 21:00:00,38.0,27.7,30.08,SW,225,5.0,5.0,66,0.00,,SCT048,0.00,VWS V14.01,2013-02-12 02:00:00,
2013-02-11 21:05:00,37.8,27.8,30.07,WSW,250,2.5,6.2,67,0.00,,SCT048,0.00,VWS V14.01,2013-02-12 02:05:00,
2013-02-11 21:10:00,37.7,27.8,30.07,SSW,212,5.0,11.2,67,0.00,,SCT048,0.00,VWS V14.01,2013-02-12 02:10:00,
2013-02-11 21:15:00,37.7,27.8,30.08,East,91,7.5,12.5,67,0.00,,SCT048,0.00,VWS V14.01,2013-02-12 02:15:00,
2013-02-11 21:20:00,37.7,27.8,30.07,SSW,213,5.0,10.0,67,0.00,,SCT048,0.00,VWS V14.01,2013-02-12 02:20:00,
2013-02-11 21:25:00,37.6,28.0,30.07,SW,226,3.8,10.0,68,0.00,,SCT048,0.00,VWS V14.01,2013-02-12 02:25:00,
2013-02-11 21:30:00,37.3,27.7,30.07,SW,229,8.8,11.2,68,0.00,,SCT048,0.00,VWS V14.01,2013-02-12 02:30:00,
2013-02-11 21:35:00,37.3,27.7,30.07,NNW,333,5.0,8.8,68,0.00,,CLR,0.00,VWS V14.01,2013-02-12 02:35:00,
2013-02-11 21:40:00,37.3,28.1,30.07,WSW,251,1.2,11.2,69,0.00,,CLR,0.00,VWS V14.01,2013-02-12 02:40:00,
2013-02-11 21:45:00,37.1,27.9,30.08,SW,231,3.8,11.2,69,0.00,,CLR,0.00,VWS V14.01,2013-02-12 02:45:00,
2013-02-11 21:50:00,37.1,27.9,30.08,SW,221,5.0,10.0,69,0.00,,CLR,0.00,VWS V14.01,2013-02-12 02:50:00,
2013-02-11 21:55:00,37.1,27.9,30.08,SSW,193,2.5,10.0,69,0.00,,CLR,0.00,VWS V14.01,2013-02-12 02:55:00,
2013-02-11 22:00:00,36.9,28.0,30.08,NW,311,2.5,10.0,70,0.00,,CLR,0.00,VWS V14.01,2013-02-12 03:00:00,
2013-02-11 22:05:00,36.9,27.7,30.08,SW,214,5.0,11.2,69,0.00,,CLR,0.00,VWS V14.01,2013-02-12 03:05:00,
2013-02-11 22:10:00,36.8,28.0,30.08,South,170,2.5,11.2,70,0.00,,CLR,0.00,VWS V14.01,2013-02-12 03:10:00,
2013-02-11 22:15:00,36.6,27.8,30.09,WSW,252,3.8,11.2,70,0.00,,CLR,0.00,VWS V14.01,2013-02-12 03:15:00,
2013-02-11 22:20:00,36.7,27.9,30.09,SSW,212,3.8,12.5,70,0.00,,CLR,0.00,VWS V14.01,2013-02-12 03:20:00,
2013-02-11 22:25:00,36.6,27.8,30.09,SSW,198,5.0,12.5,70,0.00,,CLR,0.00,VWS V14.01,2013-02-12 03:25:00,
2013-02-11 22:30:00,36.5,27.7,30.08,SW,214,3.8,12.5,70,0.00,,CLR,0.00,VWS V14.01,2013-02-12 03:30:00,
2013-02-11 22:35:00,36.3,27.8,30.09,WSW,250,3.8,11.2,71,0.00,,CLR,0.00,VWS V14.01,2013-02-12 03:35:00,
2013-02-11 22:40:00,36.2,27.7,30.09,SSW,203,2.5,11.2,71,0.00,,CLR,0.00,VWS V14.01,2013-02-12 03:40:00,
2013-02-11 22:45:00,36.0,27.9,30.09,SW,228,3.8,11.2,72,0.00,,CLR,0.00,VWS V14.01,2013-02-12 03:45:00,
2013-02-11 22:50:00,36.0,27.9,30.09,SW,217,2.5,6.2,72,0.00,,CLR,0.00,VWS V14.01,2013-02-12 03:50:00,
2013-02-11 22:55:00,35.8,27.7,30.09,WSW,255,3.8,6.2,72,0.00,,CLR,0.00,VWS V14.01,2013-02-12 03:55:00,
2013-02-11 23:00:00,35.8,27.7,30.09,SSE,158,6.2,10.0,72,0.00,,CLR,0.00,VWS V14.01,2013-02-12 04:00:00,
2013-02-11 23:05:00,35.8,27.7,30.09,WSW,239,5.0,7.5,72,0.00,,CLR,0.00,VWS V14.01,2013-02-12 04:05:00,
2013-02-11 23:10:00,35.7,27.9,30.09,SW,219,2.5,7.5,73,0.00,,CLR,0.00,VWS V14.01,2013-02-12 04:10:00,
2013-02-11 23:15:00,35.5,27.7,30.09,SSW,199,7.5,11.2,73,0.00,,CLR,0.00,VWS V14.01,2013-02-12 04:15:00,
2013-02-11 23:20:00,35.5,27.7,30.09,SW,219,2.5,8.8,73,0.00,,CLR,0.00,VWS V14.01,2013-02-12 04:20:00,
2013-02-11 23:25:00,35.4,28.0,30.10,SSW,205,2.5,8.8,74,0.00,,CLR,0.00,VWS V14.01,2013-02-12 04:25:00,
2013-02-11 23:30:00,35.4,28.0,30.10,South,181,2.5,8.8,74,0.00,,CLR,0.00,VWS V14.01,2013-02-12 04:30:00,
2013-02-11 23:35:00,35.2,27.8,30.10,SW,218,5.0,7.5,74,0.00,,CLR,0.00,VWS V14.01,2013-02-12 04:35:00,
2013-02-11 23:40:00,35.1,27.7,30.10,WSW,238,2.5,7.5,74,0.00,,CLR,0.00,VWS V14.01,2013-02-12 04:40:00,
2013-02-11 23:45:00,34.9,27.8,30.10,SSW,193,5.0,7.5,75,0.00,,CLR,0.00,VWS V14.01,2013-02-12 04:45:00,
2013-02-11 23:50:00,34.9,27.8,30.10,South,186,3.8,10.0,75,0.00,,CLR,0.00,VWS V14.01,2013-02-12 04:50:00,
2013-02-11 23:55:00,34.8,27.7,30.10,West,269,1.2,10.0,75,0.00,,CLR,0.00,VWS V14.01,2013-02-12 04:55:00,